When you browse on this site, cookies collect data to enhance your experience and personalize the content and advertising you see.
Visit our Privacy Policy to learn more. By continuing to use the site, you agree to this use of cookies and data.

Tiempo cada hora Korçe

Hoy, 11 Julio, Sábado

Tiempo Temperatura Precipitaciones Viento Presión Humedad
00:00 +16°C° 0 mm 1 mps 667 mmHg 77%
01:00 +16°C° 0 mm 1 mps 667 mmHg 77%
02:00 +16°C° 0 mm 1 mps 667 mmHg 76%
03:00 +15°C° 0 mm 1 mps 667 mmHg 76%
04:00 +15°C° 0 mm 1 mps 667 mmHg 76%
05:00 +18°C° 0 mm 1 mps 667 mmHg 70%
06:00 +20°C° 0 mm 1 mps 668 mmHg 64%
07:00 +22°C° 0 mm 1 mps 669 mmHg 58%
08:00 +23°C° 0 mm 1 mps 669 mmHg 52%
09:00 +25°C° 0 mm 1 mps 669 mmHg 46%
10:00 +27°C° 0 mm 1 mps 670 mmHg 41%
11:00 +27°C° 0 mm 1 mps 670 mmHg 39%
12:00 +28°C° 0 mm 1 mps 670 mmHg 38%
13:00 +28°C° 0 mm 2 mps 670 mmHg 36%
14:00 +28°C° 0 mm 2 mps 669 mmHg 40%
15:00 +27°C° 0 mm 3 mps 669 mmHg 44%
16:00 +26°C° 0 mm 3 mps 668 mmHg 49%
17:00 +24°C° 0 mm 2 mps 668 mmHg 56%
18:00 +23°C° 0 mm 2 mps 667 mmHg 63%
19:00 +21°C° 0 mm 1 mps 667 mmHg 71%
20:00 +20°C° 0 mm 1 mps 667 mmHg 71%
21:00 +19°C° 0 mm 1 mps 667 mmHg 72%
22:00 +18°C° 0 mm 1 mps 667 mmHg 72%
23:00 +18°C° 0 mm 1 mps 667 mmHg 73%

Mañana, 12 Julio, Domingo

Tiempo Temperatura Precipitaciones Viento Presión Humedad
00:00 +18°C° 0 mm 1 mps 666 mmHg 73%
01:00 +18°C° 0 mm 1 mps 666 mmHg 74%
02:00 +16°C° 0 mm 1 mps 666 mmHg 74%
03:00 +16°C° 0 mm 1 mps 666 mmHg 74%
04:00 +16°C° 0 mm 1 mps 666 mmHg 74%
05:00 +19°C° 0 mm 1 mps 666 mmHg 69%
06:00 +21°C° 0 mm 1 mps 667 mmHg 64%
07:00 +23°C° 0 mm 1 mps 668 mmHg 59%
08:00 +24°C° 0 mm 1 mps 668 mmHg 54%
09:00 +26°C° 0 mm 1 mps 668 mmHg 49%
10:00 +27°C° 0 mm 2 mps 669 mmHg 44%
11:00 +28°C° 0 mm 2 mps 669 mmHg 43%
12:00 +28°C° 0 mm 2 mps 669 mmHg 41%
13:00 +29°C° 0 mm 3 mps 669 mmHg 40%
14:00 +28°C° 0 mm 3 mps 669 mmHg 43%
15:00 +28°C° 0 mm 3 mps 668 mmHg 46%
16:00 +27°C° 0 mm 3 mps 668 mmHg 49%
17:00 +25°C° 0.1 mm 3 mps 668 mmHg 58%
18:00 +23°C° 0.1 mm 2 mps 667 mmHg 66%
19:00 +20°C° 0.1 mm 2 mps 667 mmHg 75%
20:00 +19°C° 0.1 mm 2 mps 667 mmHg 77%
21:00 +19°C° 0.1 mm 1 mps 667 mmHg 80%
22:00 +19°C° 0.1 mm 1 mps 667 mmHg 83%
23:00 +18°C° 0 mm 1 mps 667 mmHg 84%

Pasado mañana, 13 Julio, Lunes

Tiempo Temperatura Precipitaciones Viento Presión Humedad
00:00 +18°C° 0 mm 1 mps 667 mmHg 84%
01:00 +18°C° 0 mm 1 mps 666 mmHg 85%
02:00 +16°C° 0 mm 1 mps 666 mmHg 86%
03:00 +16°C° 0 mm 1 mps 666 mmHg 88%
04:00 +15°C° 0 mm 1 mps 666 mmHg 89%
05:00 +18°C° 0 mm 1 mps 666 mmHg 84%
06:00 +19°C° 0 mm 1 mps 667 mmHg 79%
07:00 +20°C° 0 mm 1 mps 667 mmHg 74%
08:00 +21°C° 0 mm 2 mps 668 mmHg 68%
09:00 +23°C° 0 mm 2 mps 668 mmHg 61%
10:00 +25°C° 0 mm 2 mps 668 mmHg 55%
11:00 +26°C° 0 mm 2 mps 668 mmHg 52%
12:00 +26°C° 0 mm 2 mps 668 mmHg 48%
13:00 +27°C° 0 mm 3 mps 668 mmHg 45%
14:00 +26°C° 0 mm 3 mps 668 mmHg 46%
15:00 +26°C° 0 mm 3 mps 667 mmHg 47%
16:00 +26°C° 0 mm 3 mps 667 mmHg 48%
17:00 +24°C° 0 mm 2 mps 667 mmHg 54%
18:00 +21°C° 0 mm 2 mps 666 mmHg 59%
19:00 +19°C° 0 mm 2 mps 666 mmHg 64%
20:00 +18°C° 0 mm 2 mps 666 mmHg 62%
21:00 +17°C° 0 mm 2 mps 666 mmHg 61%
22:00 +16°C° 0 mm 2 mps 666 mmHg 59%
23:00 +15°C° 0 mm 2 mps 666 mmHg 58%

14 Julio, Martes

Tiempo Temperatura Precipitaciones Viento Presión Humedad
00:00 +15°C° 0 mm 2 mps 666 mmHg 57%
01:00 +14°C° 0 mm 2 mps 666 mmHg 56%
02:00 +14°C° 0 mm 2 mps 665 mmHg 57%
03:00 +14°C° 0 mm 2 mps 665 mmHg 57%
04:00 +15°C° 0 mm 2 mps 665 mmHg 57%
05:00 +15°C° 0 mm 2 mps 666 mmHg 60%
06:00 +16°C° 0 mm 2 mps 666 mmHg 63%
07:00 +17°C° 0 mm 2 mps 667 mmHg 65%
08:00 +18°C° 0 mm 2 mps 667 mmHg 64%
09:00 +19°C° 0 mm 2 mps 667 mmHg 63%
10:00 +21°C° 0 mm 2 mps 668 mmHg 61%
11:00 +21°C° 0.2 mm 2 mps 668 mmHg 59%
12:00 +23°C° 0.2 mm 1 mps 668 mmHg 58%
13:00 +24°C° 0.2 mm 1 mps 668 mmHg 56%
14:00 +23°C° 0.7 mm 1 mps 668 mmHg 59%
15:00 +23°C° 0.7 mm 1 mps 667 mmHg 63%
16:00 +22°C° 0.7 mm 1 mps 667 mmHg 67%
17:00 +21°C° 0.2 mm 1 mps 667 mmHg 71%
18:00 +19°C° 0.2 mm 1 mps 667 mmHg 75%
19:00 +18°C° 0.2 mm 1 mps 666 mmHg 80%
20:00 +16°C° 0 mm 1 mps 666 mmHg 81%
21:00 +16°C° 0 mm 1 mps 666 mmHg 83%
22:00 +15°C° 0 mm 1 mps 666 mmHg 85%
23:00 +15°C° 0 mm 1 mps 666 mmHg 85%

15 Julio, Miércoles

Tiempo Temperatura Precipitaciones Viento Presión Humedad
00:00 +14°C° 0 mm 1 mps 666 mmHg 86%
01:00 +14°C° 0 mm 1 mps 666 mmHg 86%
02:00 +14°C° 0 mm 1 mps 666 mmHg 86%
03:00 +14°C° 0 mm 1 mps 666 mmHg 86%
04:00 +13°C° 0 mm 1 mps 666 mmHg 86%
05:00 +15°C° 0 mm 1 mps 667 mmHg 81%
06:00 +18°C° 0 mm 1 mps 667 mmHg 75%
07:00 +18°C° 0 mm 0 mps 668 mmHg 70%
08:00 +21°C° 0 mm 1 mps 668 mmHg 63%
09:00 +23°C° 0 mm 1 mps 669 mmHg 56%
10:00 +25°C° 0 mm 2 mps 669 mmHg 49%
11:00 +25°C° 0.1 mm 2 mps 669 mmHg 48%
12:00 +25°C° 0.1 mm 2 mps 669 mmHg 47%
13:00 +25°C° 0.1 mm 3 mps 669 mmHg 46%
14:00 +25°C° 0.1 mm 3 mps 669 mmHg 47%
15:00 +25°C° 0.1 mm 3 mps 669 mmHg 47%
16:00 +24°C° 0.1 mm 3 mps 668 mmHg 47%
17:00 +21°C° 0 mm 3 mps 668 mmHg 52%
18:00 +20°C° 0 mm 2 mps 667 mmHg 57%
19:00 +18°C° 0 mm 2 mps 667 mmHg 62%
20:00 +18°C° 0 mm 1 mps 667 mmHg 62%
21:00 +16°C° 0 mm 1 mps 667 mmHg 62%
22:00 +15°C° 0 mm 1 mps 667 mmHg 63%
23:00 +15°C° 0 mm 1 mps 667 mmHg 64%

16 Julio, Jueves

Tiempo Temperatura Precipitaciones Viento Presión Humedad
00:00 +15°C° 0 mm 1 mps 667 mmHg 65%
01:00 +15°C° 0 mm 1 mps 667 mmHg 66%
02:00 +14°C° 0 mm 1 mps 666 mmHg 67%
03:00 +14°C° 0 mm 1 mps 666 mmHg 69%
04:00 +14°C° 0 mm 1 mps 666 mmHg 70%
05:00 +16°C° 0 mm 1 mps 667 mmHg 66%
06:00 +19°C° 0 mm 1 mps 667 mmHg 61%
07:00 +21°C° 0 mm 1 mps 668 mmHg 56%
08:00 +22°C° 0 mm 1 mps 668 mmHg 51%
09:00 +24°C° 0 mm 1 mps 669 mmHg 45%
10:00 +25°C° 0 mm 2 mps 669 mmHg 39%
11:00 +26°C° 0 mm 2 mps 669 mmHg 37%
12:00 +26°C° 0 mm 2 mps 669 mmHg 35%
13:00 +27°C° 0 mm 2 mps 669 mmHg 33%
14:00 +27°C° 0 mm 2 mps 668 mmHg 35%
15:00 +26°C° 0 mm 3 mps 668 mmHg 37%
16:00 +26°C° 0 mm 3 mps 668 mmHg 39%
17:00 +24°C° 0 mm 3 mps 667 mmHg 46%
18:00 +21°C° 0 mm 2 mps 667 mmHg 54%
19:00 +18°C° 0 mm 2 mps 666 mmHg 61%
20:00 +19°C° 0 mm 1 mps 666 mmHg 62%
21:00 +18°C° 0 mm 1 mps 666 mmHg 62%
22:00 +16°C° 0 mm 1 mps 666 mmHg 63%
23:00 +16°C° 0 mm 1 mps 666 mmHg 63%
Mostrar más